[[{"header":{"parameterUnit":"m.s-1","parameterCategory":1,"la1":30.2991,"la2":30.254,"lo1":-89.0895,"lo2":-89.0444,"dy":0.0017,"dx":0.0017,"nx":28,"ny":28,"refTime":"2024-12-12T03:00:00:Z","depth":0,"parameterNumber":2,"parameterNumberName":"U-component_of_WINDS"},"data":[0,0,0,0,0,0,0,0,0,0,0,0,0,0,0,0,0,0,0,0,0,0,0,0,0,0,0,0,0,0,0,0,0,0,0,0,0,0,0,0,0,0,0,0,0,0,0,0,0,0,0,0,0,0,0,0,0,0,-3.4485,-3.4486,0,-3.4527,-3.4528,-3.4528,-3.4418,-3.4415,-3.4411,-3.4408,-3.4451,-3.4455,-3.446,0,0,0,0,0,0,0,0,0,0,0,0,0,-3.4309,-3.4313,-3.4485,-3.4486,-3.4486,-3.4527,-3.4528,-3.4528,-3.4419,-3.4415,-3.441,-3.4406,-3.445,-3.4455,-3.446,0,0,0,0,0,0,0,0,0,0,0,0,0,-3.4372,-3.4314,-3.4485,-3.4437,-3.4433,-3.4527,-3.4528,-3.4528,-3.442,-3.4414,-3.4409,-3.4405,-3.4448,-3.4454,-3.4461,-3.4604,0,0,-3.4481,-3.4484,0,0,0,0,0,0,0,0,-3.4369,-3.4379,-3.4443,-3.444,-3.4436,-3.4462,-3.4481,-3.4554,-3.4421,-3.4425,-3.4408,-3.4402,-3.4459,-3.4464,-3.4483,-3.4606,-3.4608,-3.4481,-3.4485,-3.4488,-3.449,0,0,0,0,0,0,0,-3.4364,-3.4376,-3.4502,-3.4444,-3.444,-3.4412,-3.4415,-3.4494,-3.447,-3.4424,-3.4416,-3.4422,-3.4456,-3.4477,-3.4484,-3.4609,-3.4481,-3.4487,-3.4491,-3.4494,-3.4849,-3.4854,0,0,0,0,0,0,-3.4366,-3.4373,-3.45,-3.4503,-3.4389,-3.442,-3.4423,-3.4459,-3.4469,-3.4466,-3.4427,-3.4417,-3.4469,-3.4476,-3.4485,-3.4652,-3.4488,-3.4494,-3.4498,-3.4844,-3.485,-3.4856,0,0,0,0,0,0,-3.4363,-3.4379,-3.4499,-3.4436,-3.4449,-3.4428,-3.4469,-3.4462,-3.4484,-3.4471,-3.4466,-3.4453,-3.4465,-3.4476,-3.4575,-3.4652,-3.4497,-3.4503,-3.4837,-3.4846,-3.4853,-3.4989,0,0,0,0,0,0,-3.4358,-3.4378,-3.4433,-3.4438,-3.4453,-3.4589,-3.4474,-3.4467,-3.4495,-3.4483,-3.4495,-3.4492,-3.4462,-3.4566,-3.4581,-3.4658,-3.4508,-3.483,-3.4841,-3.4851,-3.4978,-3.5001,-3.5021,0,0,0,0,0,-3.4353,-3.447,-3.4436,-3.4452,-3.4521,-3.4594,-3.4602,-3.4565,-3.4502,-3.4556,-3.4548,-3.4491,-3.4641,-3.4577,-3.4593,-3.4674,-3.4825,-3.4838,-3.485,-3.4968,-3.4996,-3.502,0,0,0,0,0,0,-3.4475,-3.447,-3.4432,-3.4555,-3.4576,-3.4575,-3.4643,-3.4597,-3.4636,-3.4623,-3.4575,-3.4579,-3.4687,-3.469,-3.4618,-3.4812,-3.4722,-3.4739,-3.4806,-3.4833,-3.4854,-3.4851,-3.4514,0,0,0,0,0,-3.4516,-3.4576,-3.4568,-3.4677,-3.4689,-3.4664,-3.4695,-3.4664,-3.4684,-3.4692,-3.4691,-3.4712,-3.4763,-3.4798,-3.4845,-3.4977,-3.4978,-3.504,-3.5062,-3.508,-3.5095,-3.5163,-3.5191,-3.4897,-3.4897,-3.4897,0,0,-3.4602,-3.4606,-3.4647,-3.4701,-3.4714,-3.4776,-3.4672,-3.4743,-3.4789,-3.4703,-3.4796,-3.4796,-3.4816,-3.4932,-3.4983,-3.4938,-3.5176,-3.5096,-3.511,-3.5115,-3.5179,-3.5207,-3.5232,-3.4905,-3.4904,-3.4903,0,0,-3.479,-3.48,-3.4891,-3.4905,-3.4925,-3.4908,-3.493,-3.4936,-3.4932,-3.5025,-3.4961,-3.5015,-3.5105,-3.5121,-3.5141,-3.5334,-3.5283,-3.5351,-3.5464,-3.5532,-3.5555,-3.5575,-3.5644,-3.5669,-3.5365,-3.5366,-3.5366,0,-3.4895,-3.4986,-3.4944,-3.5019,-3.5044,-3.4968,-3.5059,-3.5075,-3.511,-3.5129,-3.5077,-3.5188,-3.5196,-3.5314,-3.5361,-3.538,-3.5403,-3.5349,-3.5555,-3.5575,-3.5593,-3.5658,-3.5684,-3.5374,-3.5373,-3.5372,-3.5371,0,-3.5113,-3.5178,-3.5249,-3.5283,-3.5316,-3.5399,-3.5369,-3.5407,-3.5374,-3.5362,-3.5456,-3.5463,-3.551,-3.5535,-3.5504,-3.5649,-3.562,-3.5563,-3.5472,-3.563,-3.569,-3.5714,-3.5385,-3.5382,-3.538,-3.5378,0,0,-3.5381,-3.539,-3.5417,-3.5431,-3.5446,-3.5495,-3.5573,-3.5618,-3.5652,-3.5678,-3.5742,-3.5819,-3.5766,-3.5789,-3.5758,-3.5818,-3.5969,-3.5753,-3.5752,-3.5792,-3.6129,-3.6172,-3.6201,-3.5935,-3.5939,-3.5943,-3.6127,0,-3.5567,-3.5702,-3.5665,-3.58,-3.5858,-3.5786,-3.5854,-3.5871,-3.5861,-3.5909,-3.5898,-3.5953,-3.5879,-3.5892,-3.5948,-3.5939,-3.6036,-3.5925,-3.5994,-3.5997,-3.5992,-3.6232,-3.6278,-3.6451,-3.615,-3.6154,-3.6157,0,-3.5801,-3.5835,-3.5976,-3.598,-3.6003,-3.6066,-3.6103,-3.6149,-3.6166,-3.6155,-3.618,-3.6137,-3.6214,-3.6122,-3.6227,-3.6152,-3.6178,-3.6178,-3.6183,-3.6189,-3.6087,-3.6244,-3.6506,-3.6532,-3.6193,-3.619,-3.6188,0,-3.5982,-3.6063,-3.6157,-3.6172,-3.6179,-3.6224,-3.6229,-3.6241,-3.627,-3.6302,-3.632,-3.6362,-3.6384,-3.6417,-3.6386,-3.6322,-3.6495,-3.6401,-3.6488,-3.6489,-3.6528,-3.6526,-3.6798,-3.6545,-3.6545,-3.6544,-3.6544,0,-3.6193,-3.6282,-3.6238,-3.6297,-3.6393,-3.635,-3.6447,-3.6443,-3.6454,-3.651,-3.645,-3.6503,-3.6459,-3.6508,-3.6484,-3.6574,-3.6585,-3.6577,-3.657,-3.6583,-3.6584,-3.66,-3.6587,-3.6551,-3.6549,-3.6548,-3.6547,0,-3.6412,-3.6386,-3.6484,-3.6482,-3.6484,-3.6556,-3.6554,-3.6607,-3.6592,-3.6663,-3.6678,-3.6655,-3.671,-3.6681,-3.6739,-3.6722,-3.6839,-3.6815,-3.6833,-3.6827,-3.6915,-3.6907,-3.7206,-3.7243,-3.6967,-3.697,-3.6972,0,-3.6548,-3.6615,-3.662,-3.6652,-3.6662,-3.6715,-3.6744,-3.6703,-3.6735,-3.6758,-3.6809,-3.6858,-3.6896,-3.6987,-3.6975,-3.7018,-3.6995,-3.7097,-3.7001,-3.7012,-3.6996,-3.6993,-3.6999,-3.7116,-3.712,-3.7122,-3.7124,0,-3.6793,-3.6777,-3.682,-3.6859,-3.6895,-3.6924,-3.6948,-3.6978,-3.6937,-3.6977,-3.7032,-3.7061,-3.7118,-3.7168,-3.7205,-3.7209,-3.7161,-3.7154,-3.7177,-3.7191,-3.7198,-3.7195,-3.6885,-3.7148,-3.7146,-3.7144,-3.7143,-3.7142,-3.6974,-3.703,-3.7041,-3.7091,-3.7105,-3.7128,-3.7177,-3.7168,-3.7213,-3.7257,-3.723,-3.7294,-3.7308,-3.7352,-3.7363,-3.7413,-3.7372,-3.7405,-3.7413,-3.7421,-3.7433,-3.719,-3.7419,-3.7419,-3.7418,-3.7417,-3.7417,0,-3.7216,-3.7219,-3.7266,-3.73,-3.7339,-3.7289,-3.7312,-3.7348,-3.7406,-3.7422,-3.746,-3.7523,-3.757,-3.7562,-3.7605,-3.7646,-3.7625,-3.7659,-3.7656,-3.7657,-3.7467,-3.7444,-3.7676,-3.7675,-3.7675,-3.7675,-3.7675,-3.7675,-3.7346,-3.7436,-3.7421,-3.7516,-3.7519,-3.7581,-3.7599,-3.762,-3.7632,-3.7705,-3.7744,-3.7738,-3.7744,-3.7787,-3.7828,-3.7824,-3.7843,-3.7886,-3.7874,-3.7696,-3.7671,-3.7646,-3.7624,-3.789,-3.789,-3.8059,-3.8061,-3.8062]},{"header":{"parameterUnit":"m.s-1","parameterCategory":1,"la1":30.2991,"la2":30.254,"lo1":-89.0895,"lo2":-89.0444,"dy":0.0017,"dx":0.0017,"nx":28,"ny":28,"refTime":"2024-12-12T03:00:00:Z","depth":0,"parameterNumber":3,"parameterNumberName":"V-component_of_WINDS"},"data":[0,0,0,0,0,0,0,0,0,0,0,0,0,0,0,0,0,0,0,0,0,0,0,0,0,0,0,0,0,0,0,0,0,0,0,0,0,0,0,0,0,0,0,0,0,0,0,0,0,0,0,0,0,0,0,0,0,0,-0.6107,-0.6108,0,-0.6214,-0.6216,-0.6217,-0.6258,-0.6258,-0.6257,-0.6257,-0.6368,-0.6371,-0.6375,0,0,0,0,0,0,0,0,0,0,0,0,0,-0.5938,-0.5941,-0.6107,-0.6109,-0.611,-0.6214,-0.6216,-0.6217,-0.6258,-0.6258,-0.6257,-0.6257,-0.6367,-0.6371,-0.6375,0,0,0,0,0,0,0,0,0,0,0,0,0,-0.6025,-0.5942,-0.6107,-0.6143,-0.6147,-0.6214,-0.6216,-0.6218,-0.6258,-0.6258,-0.6257,-0.6257,-0.6366,-0.6371,-0.6375,-0.6415,0,0,-0.639,-0.6392,0,0,0,0,0,0,0,0,-0.602,-0.6031,-0.6136,-0.614,-0.6145,-0.6222,-0.6197,-0.6284,-0.6258,-0.6216,-0.6257,-0.6256,-0.632,-0.6329,-0.635,-0.642,-0.6425,-0.6391,-0.6394,-0.6396,-0.6397,0,0,0,0,0,0,0,-0.6014,-0.6027,-0.615,-0.6138,-0.6143,-0.6153,-0.6165,-0.6213,-0.6269,-0.622,-0.6223,-0.6235,-0.6323,-0.6345,-0.6353,-0.6427,-0.6391,-0.6395,-0.6398,-0.64,-0.6533,-0.6534,0,0,0,0,0,0,-0.6002,-0.6021,-0.6146,-0.6153,-0.608,-0.6157,-0.617,-0.6198,-0.6269,-0.6279,-0.6235,-0.6236,-0.6337,-0.6347,-0.6357,-0.6407,-0.6396,-0.64,-0.6403,-0.6533,-0.6533,-0.6534,0,0,0,0,0,0,-0.5998,-0.6013,-0.6142,-0.6088,-0.6105,-0.616,-0.6191,-0.62,-0.6223,-0.6281,-0.6291,-0.6248,-0.6337,-0.635,-0.64,-0.6412,-0.6403,-0.6407,-0.6532,-0.6533,-0.6534,-0.6509,0,0,0,0,0,0,-0.5993,-0.6011,-0.6027,-0.6088,-0.6108,-0.6183,-0.6192,-0.6203,-0.6231,-0.6234,-0.6295,-0.6305,-0.6338,-0.6392,-0.6405,-0.6418,-0.6411,-0.6531,-0.6532,-0.6533,-0.6509,-0.6509,-0.6509,0,0,0,0,0,-0.5987,-0.6016,-0.6027,-0.6042,-0.6129,-0.6184,-0.6195,-0.6231,-0.6232,-0.6248,-0.6285,-0.6303,-0.6408,-0.6397,-0.6411,-0.6427,-0.6531,-0.6532,-0.6533,-0.6509,-0.6509,-0.6509,0,0,0,0,0,0,-0.5956,-0.6025,-0.6038,-0.6088,-0.613,-0.619,-0.6212,-0.623,-0.6273,-0.6274,-0.6317,-0.6331,-0.6377,-0.6407,-0.6393,-0.6468,-0.6471,-0.6475,-0.6447,-0.6448,-0.6447,-0.644,-0.6415,0,0,0,0,0,-0.5955,-0.5993,-0.6052,-0.609,-0.611,-0.6157,-0.6183,-0.6207,-0.6252,-0.627,-0.631,-0.6353,-0.6396,-0.6423,-0.6466,-0.6513,-0.6527,-0.653,-0.653,-0.653,-0.6533,-0.656,-0.6562,-0.6539,-0.6539,-0.6539,0,0,-0.5953,-0.5996,-0.6018,-0.6085,-0.612,-0.6159,-0.6172,-0.6213,-0.6242,-0.6276,-0.6325,-0.6356,-0.6407,-0.6455,-0.6479,-0.6482,-0.6543,-0.6532,-0.6531,-0.6535,-0.6561,-0.6564,-0.6565,-0.654,-0.6539,-0.6539,0,0,-0.597,-0.6006,-0.6042,-0.6076,-0.6128,-0.6159,-0.6167,-0.6225,-0.6247,-0.6296,-0.6322,-0.6357,-0.643,-0.6465,-0.6493,-0.652,-0.6538,-0.6532,-0.6533,-0.6558,-0.656,-0.6561,-0.6571,-0.6574,-0.6535,-0.6535,-0.6535,0,-0.5962,-0.6022,-0.6058,-0.6097,-0.6126,-0.6156,-0.6193,-0.6224,-0.6288,-0.6307,-0.6309,-0.6399,-0.6436,-0.6492,-0.6499,-0.652,-0.6531,-0.6526,-0.6556,-0.6558,-0.6561,-0.6571,-0.6574,-0.6534,-0.6534,-0.6535,-0.6535,0,-0.6009,-0.6049,-0.6072,-0.6131,-0.6162,-0.6199,-0.6241,-0.6268,-0.6288,-0.6319,-0.6369,-0.6413,-0.6464,-0.6479,-0.6501,-0.6539,-0.6539,-0.6548,-0.6552,-0.6561,-0.6571,-0.6575,-0.6533,-0.6533,-0.6534,-0.6534,0,0,-0.6012,-0.6089,-0.6097,-0.6123,-0.6182,-0.6214,-0.6252,-0.6302,-0.6324,-0.6366,-0.6399,-0.6458,-0.6466,-0.6497,-0.6522,-0.6544,-0.6562,-0.6551,-0.6552,-0.6551,-0.6607,-0.66,-0.6604,-0.6574,-0.6575,-0.6576,-0.6602,0,-0.6037,-0.6106,-0.6139,-0.6194,-0.6231,-0.626,-0.6293,-0.6332,-0.6361,-0.6397,-0.6429,-0.6471,-0.6479,-0.6497,-0.652,-0.6555,-0.6574,-0.6554,-0.6606,-0.6607,-0.6593,-0.6609,-0.6602,-0.6626,-0.6606,-0.6607,-0.6608,0,-0.6076,-0.6117,-0.6175,-0.6228,-0.6245,-0.6274,-0.6321,-0.6355,-0.64,-0.6419,-0.6452,-0.6476,-0.6517,-0.6516,-0.6573,-0.6558,-0.6581,-0.6601,-0.6603,-0.661,-0.6609,-0.6617,-0.6634,-0.6638,-0.6614,-0.6614,-0.6613,0,-0.6073,-0.6142,-0.6186,-0.6207,-0.627,-0.629,-0.6317,-0.6361,-0.6388,-0.6429,-0.6447,-0.6492,-0.6517,-0.6552,-0.6587,-0.6583,-0.664,-0.6642,-0.6657,-0.6656,-0.6669,-0.6668,-0.6691,-0.6682,-0.6682,-0.6682,-0.6682,0,-0.6098,-0.6132,-0.6184,-0.6212,-0.6251,-0.6287,-0.6325,-0.6354,-0.6393,-0.6426,-0.6453,-0.6483,-0.6527,-0.6563,-0.6591,-0.6633,-0.6644,-0.6661,-0.6668,-0.6659,-0.6657,-0.6676,-0.6675,-0.6683,-0.6683,-0.6683,-0.6683,0,-0.6101,-0.6137,-0.6187,-0.6241,-0.6255,-0.6282,-0.6329,-0.6356,-0.6384,-0.6426,-0.6438,-0.6484,-0.6527,-0.6565,-0.6622,-0.6641,-0.6684,-0.6693,-0.6669,-0.6673,-0.6686,-0.6684,-0.6722,-0.6729,-0.6715,-0.6715,-0.6715,0,-0.6116,-0.6143,-0.6199,-0.6223,-0.6249,-0.6287,-0.6314,-0.635,-0.6377,-0.6429,-0.645,-0.6495,-0.6533,-0.66,-0.6639,-0.6683,-0.6693,-0.6703,-0.67,-0.669,-0.6694,-0.6692,-0.6695,-0.6703,-0.6703,-0.6703,-0.6703,0,-0.6137,-0.6153,-0.6191,-0.6234,-0.6266,-0.6302,-0.6339,-0.6357,-0.64,-0.6429,-0.6473,-0.6503,-0.656,-0.6605,-0.6652,-0.668,-0.6699,-0.6704,-0.671,-0.6701,-0.6686,-0.6695,-0.667,-0.6703,-0.6703,-0.6703,-0.6703,-0.6703,-0.6147,-0.6172,-0.6215,-0.6256,-0.6287,-0.632,-0.6348,-0.638,-0.6417,-0.6466,-0.6485,-0.653,-0.6573,-0.6638,-0.6666,-0.6701,-0.6705,-0.6713,-0.6716,-0.6717,-0.6716,-0.668,-0.671,-0.671,-0.671,-0.671,-0.671,0,-0.617,-0.6198,-0.6235,-0.6286,-0.6317,-0.6331,-0.6372,-0.6398,-0.6437,-0.6474,-0.6511,-0.656,-0.6603,-0.6644,-0.6689,-0.6709,-0.6719,-0.672,-0.6719,-0.6725,-0.671,-0.6701,-0.6711,-0.6711,-0.6711,-0.6711,-0.6711,-0.6711,-0.6186,-0.6228,-0.6249,-0.6307,-0.6335,-0.6379,-0.6401,-0.6432,-0.6462,-0.6516,-0.6551,-0.6577,-0.6616,-0.6663,-0.6703,-0.6714,-0.6729,-0.6728,-0.6741,-0.6727,-0.6726,-0.6726,-0.6717,-0.6731,-0.6731,-0.6753,-0.6753,-0.6753]}]]